Hourly Weather Trowbridge

Today, 26 September, Saturday

Time Temperature Precipitation Wind Pressure Humidity
00:00 +7°C° 0 mm 4 mps 755 mmHg 77%
01:00 +6°C° 0 mm 4 mps 755 mmHg 78%
02:00 +6°C° 0 mm 4 mps 755 mmHg 79%
03:00 +6°C° 0 mm 4 mps 755 mmHg 80%
04:00 +5°C° 0 mm 4 mps 756 mmHg 82%
05:00 +5°C° 0 mm 4 mps 756 mmHg 84%
06:00 +4°C° 0 mm 4 mps 756 mmHg 85%
07:00 +6°C° 0 mm 5 mps 756 mmHg 77%
08:00 +7°C° 0 mm 6 mps 756 mmHg 69%
09:00 +8°C° 0 mm 7 mps 756 mmHg 61%
10:00 +9°C° 0 mm 7 mps 756 mmHg 58%
11:00 +10°C° 0 mm 7 mps 756 mmHg 55%
12:00 +11°C° 0 mm 7 mps 756 mmHg 52%
13:00 +11°C° 0 mm 7 mps 756 mmHg 53%
14:00 +11°C° 0 mm 7 mps 756 mmHg 54%
15:00 +12°C° 0 mm 7 mps 756 mmHg 55%
16:00 +10°C° 0 mm 6 mps 756 mmHg 60%
17:00 +9°C° 0 mm 6 mps 756 mmHg 66%
18:00 +8°C° 0 mm 5 mps 757 mmHg 71%
19:00 +8°C° 0 mm 5 mps 757 mmHg 72%
20:00 +7°C° 0 mm 5 mps 757 mmHg 74%
21:00 +7°C° 0 mm 5 mps 757 mmHg 75%
22:00 +7°C° 0 mm 5 mps 757 mmHg 76%
23:00 +6°C° 0 mm 5 mps 757 mmHg 77%

Tomorrow, 27 September, Sunday

Time Temperature Precipitation Wind Pressure Humidity
00:00 +6°C° 0 mm 5 mps 757 mmHg 78%
01:00 +6°C° 0 mm 5 mps 757 mmHg 79%
02:00 +6°C° 0 mm 5 mps 757 mmHg 80%
03:00 +5°C° 0 mm 5 mps 757 mmHg 80%
04:00 +4°C° 0 mm 6 mps 757 mmHg 81%
05:00 +4°C° 0 mm 6 mps 757 mmHg 81%
06:00 +4°C° 0 mm 6 mps 757 mmHg 81%
07:00 +5°C° 0 mm 7 mps 757 mmHg 78%
08:00 +6°C° 0 mm 7 mps 757 mmHg 74%
09:00 +9°C° 0 mm 8 mps 757 mmHg 71%
10:00 +10°C° 0 mm 7 mps 757 mmHg 69%
11:00 +11°C° 0 mm 7 mps 757 mmHg 67%
12:00 +12°C° 0 mm 7 mps 757 mmHg 66%
13:00 +12°C° 0 mm 7 mps 756 mmHg 65%
14:00 +14°C° 0 mm 6 mps 756 mmHg 65%
15:00 +14°C° 0 mm 6 mps 756 mmHg 65%
16:00 +13°C° 0 mm 5 mps 756 mmHg 69%
17:00 +12°C° 0 mm 4 mps 756 mmHg 73%
18:00 +11°C° 0 mm 4 mps 756 mmHg 77%
19:00 +10°C° 0 mm 3 mps 757 mmHg 77%
20:00 +9°C° 0 mm 3 mps 757 mmHg 77%
21:00 +9°C° 0 mm 3 mps 757 mmHg 76%
22:00 +9°C° 0 mm 3 mps 757 mmHg 75%
23:00 +8°C° 0 mm 3 mps 757 mmHg 73%

Day after tomorrow, 28 September, Monday

Time Temperature Precipitation Wind Pressure Humidity
00:00 +8°C° 0 mm 2 mps 757 mmHg 72%
01:00 +8°C° 0 mm 2 mps 757 mmHg 73%
02:00 +8°C° 0 mm 2 mps 757 mmHg 75%
03:00 +7°C° 0 mm 2 mps 757 mmHg 77%
04:00 +8°C° 0 mm 1 mps 757 mmHg 79%
05:00 +8°C° 0 mm 1 mps 756 mmHg 82%
06:00 +7°C° 0 mm 1 mps 756 mmHg 84%
07:00 +8°C° 0 mm 2 mps 756 mmHg 78%
08:00 +10°C° 0 mm 2 mps 757 mmHg 72%
09:00 +12°C° 0 mm 2 mps 757 mmHg 67%
10:00 +13°C° 0 mm 3 mps 757 mmHg 68%
11:00 +16°C° 0 mm 3 mps 756 mmHg 69%
12:00 +18°C° 0 mm 4 mps 756 mmHg 70%
13:00 +18°C° 0 mm 4 mps 756 mmHg 71%
14:00 +18°C° 0 mm 3 mps 756 mmHg 72%
15:00 +19°C° 0 mm 3 mps 756 mmHg 73%
16:00 +18°C° 0 mm 3 mps 756 mmHg 79%
17:00 +17°C° 0 mm 2 mps 756 mmHg 85%
18:00 +16°C° 0 mm 2 mps 756 mmHg 90%
19:00 +15°C° 0 mm 2 mps 756 mmHg 92%
20:00 +15°C° 0 mm 2 mps 756 mmHg 94%
21:00 +15°C° 0 mm 2 mps 757 mmHg 95%
22:00 +14°C° 0 mm 2 mps 757 mmHg 95%
23:00 +12°C° 0 mm 3 mps 757 mmHg 94%

29 September, Tuesday

Time Temperature Precipitation Wind Pressure Humidity
00:00 +11°C° 0 mm 3 mps 757 mmHg 94%
01:00 +10°C° 0 mm 2 mps 757 mmHg 93%
02:00 +10°C° 0 mm 2 mps 757 mmHg 93%
03:00 +9°C° 0 mm 2 mps 757 mmHg 93%
04:00 +10°C° 0 mm 1 mps 757 mmHg 92%
05:00 +9°C° 0 mm 1 mps 758 mmHg 92%
06:00 +9°C° 0 mm 1 mps 758 mmHg 92%
07:00 +11°C° 0 mm 1 mps 758 mmHg 87%
08:00 +12°C° 0 mm 1 mps 758 mmHg 81%
09:00 +14°C° 0 mm 2 mps 759 mmHg 76%
10:00 +15°C° 0 mm 2 mps 759 mmHg 70%
11:00 +16°C° 0 mm 2 mps 759 mmHg 64%
12:00 +17°C° 0 mm 2 mps 759 mmHg 58%
13:00 +17°C° 0 mm 2 mps 759 mmHg 59%
14:00 +17°C° 0 mm 2 mps 758 mmHg 60%
15:00 +16°C° 0 mm 3 mps 758 mmHg 61%
16:00 +15°C° 0 mm 2 mps 758 mmHg 65%
17:00 +14°C° 0 mm 2 mps 758 mmHg 69%
18:00 +13°C° 0 mm 2 mps 758 mmHg 72%
19:00 +12°C° 0 mm 2 mps 758 mmHg 76%
20:00 +10°C° 0 mm 2 mps 758 mmHg 79%
21:00 +10°C° 0 mm 1 mps 758 mmHg 82%
22:00 +10°C° 0 mm 1 mps 758 mmHg 84%
23:00 +10°C° 0 mm 1 mps 758 mmHg 85%

30 September, Wednesday

Time Temperature Precipitation Wind Pressure Humidity
00:00 +9°C° 0 mm 1 mps 758 mmHg 86%
01:00 +9°C° 0 mm 1 mps 757 mmHg 86%
02:00 +9°C° 0 mm 1 mps 757 mmHg 85%
03:00 +9°C° 0 mm 1 mps 757 mmHg 85%
04:00 +9°C° 0 mm 1 mps 757 mmHg 85%
05:00 +9°C° 0 mm 1 mps 757 mmHg 86%
06:00 +9°C° 0 mm 1 mps 756 mmHg 87%
07:00 +9°C° 0 mm 2 mps 756 mmHg 82%
08:00 +12°C° 0 mm 2 mps 756 mmHg 77%
09:00 +14°C° 0 mm 2 mps 756 mmHg 71%
10:00 +14°C° 0 mm 3 mps 755 mmHg 68%
11:00 +16°C° 0 mm 3 mps 755 mmHg 64%
12:00 +17°C° 0 mm 4 mps 755 mmHg 60%
13:00 +17°C° 0 mm 4 mps 754 mmHg 62%
14:00 +17°C° 0 mm 4 mps 753 mmHg 64%
15:00 +16°C° 0 mm 5 mps 753 mmHg 66%
16:00 +14°C° 0 mm 4 mps 752 mmHg 72%
17:00 +13°C° 0 mm 4 mps 752 mmHg 77%
18:00 +12°C° 0 mm 3 mps 751 mmHg 83%
19:00 +12°C° 0 mm 3 mps 751 mmHg 86%
20:00 +11°C° 0 mm 3 mps 750 mmHg 88%
21:00 +11°C° 0 mm 3 mps 750 mmHg 91%
22:00 +11°C° 0 mm 4 mps 749 mmHg 91%
23:00 +11°C° 0 mm 4 mps 748 mmHg 91%

1 October, Thursday

Time Temperature Precipitation Wind Pressure Humidity
00:00 +12°C° 0 mm 4 mps 747 mmHg 91%
01:00 +12°C° 0.2 mm 4 mps 746 mmHg 92%
02:00 +12°C° 0.2 mm 5 mps 746 mmHg 93%
03:00 +13°C° 0.2 mm 5 mps 745 mmHg 94%
04:00 +13°C° 0.4 mm 5 mps 744 mmHg 94%
05:00 +13°C° 0.4 mm 6 mps 744 mmHg 93%
06:00 +13°C° 0.4 mm 6 mps 743 mmHg 93%
07:00 +13°C° 0.5 mm 5 mps 743 mmHg 93%
08:00 +14°C° 0.5 mm 5 mps 743 mmHg 93%
09:00 +14°C° 0.5 mm 5 mps 742 mmHg 93%
10:00 +15°C° 0.1 mm 4 mps 742 mmHg 89%
11:00 +17°C° 0.1 mm 4 mps 742 mmHg 85%
12:00 +18°C° 0.1 mm 4 mps 742 mmHg 81%
13:00 +18°C° 0.8 mm 4 mps 742 mmHg 81%
14:00 +17°C° 0.8 mm 5 mps 741 mmHg 80%
15:00 +17°C° 0.8 mm 6 mps 741 mmHg 80%
16:00 +15°C° 0.2 mm 6 mps 741 mmHg 81%
17:00 +14°C° 0.2 mm 6 mps 741 mmHg 83%
18:00 +11°C° 0.2 mm 7 mps 741 mmHg 84%
19:00 +10°C° 0 mm 6 mps 741 mmHg 86%
20:00 +9°C° 0 mm 5 mps 741 mmHg 87%
21:00 +9°C° 0 mm 3 mps 741 mmHg 89%
22:00 +10°C° 0.3 mm 4 mps 740 mmHg 90%
23:00 +9°C° 0.3 mm 5 mps 739 mmHg 91%
Show more